| time (UTC) | temp C | wind direction | speed KPH | gust KPH | rain 1hr cm | rain 24hr cm | rain mn cm | humidity % | barometer mb |
| 20260509090132 | 12 | 190 | 4.8 | 9.7 | 0.00 | 0.00 | 0.00 | 95 | 1008.1 |
| 20260509085648 | 12 | 190 | 3.2 | 6.4 | 0.00 | 0.00 | 0.00 | 95 | 1008.3 |
| 20260509085145 | 12 | 192 | 3.2 | 9.7 | 0.00 | 0.00 | 0.00 | 95 | 1008.3 |
| 20260509084640 | 12 | 192 | 3.2 | 14.5 | 0.00 | 0.00 | 0.00 | 95 | 1008.2 |
| 20260509084135 | 12 | 191 | 4.8 | 14.5 | 0.00 | 0.00 | 0.00 | 95 | 1008.2 |
| 20260509083631 | 12 | 192 | 4.8 | 11.3 | 0.00 | 0.00 | 0.00 | 95 | 1008.2 |
| 20260509083128 | 12 | 191 | 3.2 | 11.3 | 0.00 | 0.00 | 0.00 | 95 | 1008.1 |
| 20260509082643 | 12 | 192 | 3.2 | 14.5 | 0.00 | 0.00 | 0.00 | 95 | 1008.0 |
| 20260509082200 | 12 | 191 | 4.8 | 14.5 | 0.00 | 0.00 | 0.00 | 95 | 1008.0 |
| 20260509081636 | 12 | 194 | 3.2 | 11.3 | 0.00 | 0.00 | 0.00 | 95 | 1007.9 |
| 20260509081147 | 12 | 194 | 6.4 | 17.7 | 0.00 | 0.00 | 0.00 | 95 | 1007.9 |
| 20260509080642 | 12 | 185 | 6.4 | 17.7 | 0.00 | 0.00 | 0.00 | 95 | 1007.9 |
| 20260509080137 | 12 | 187 | 6.4 | 12.9 | 0.00 | 0.00 | 0.00 | 95 | 1007.9 |
| 20260509075633 | 12 | 191 | 3.2 | 9.7 | 0.00 | 0.00 | 0.00 | 95 | 1008.0 |
| 20260509075126 | 12 | 190 | 4.8 | 9.7 | 0.00 | 0.00 | 0.00 | 95 | 1008.1 |
| 20260509074703 | 12 | 190 | 3.2 | 11.3 | 0.00 | 0.00 | 0.00 | 95 | 1008.0 |
| 20260509074137 | 12 | 190 | 4.8 | 12.9 | 0.00 | 0.00 | 0.00 | 95 | 1008.0 |
| 20260509073633 | 12 | 189 | 4.8 | 12.9 | 0.00 | 0.00 | 0.00 | 95 | 1008.1 |
| 20260509073128 | 12 | 190 | 4.8 | 14.5 | 0.00 | 0.00 | 0.00 | 95 | 1008.1 |
| 20260509072642 | 12 | 190 | 6.4 | 14.5 | 0.00 | 0.00 | 0.00 | 95 | 1008.2 |
| 20260509072138 | 12 | 193 | 4.8 | 11.3 | 0.00 | 0.00 | 0.00 | 95 | 1008.3 |
| 20260509071652 | 12 | 192 | 4.8 | 11.3 | 0.00 | 0.00 | 0.00 | 95 | 1008.4 |
| 20260509071147 | 12 | 191 | 4.8 | 9.7 | 0.00 | 0.00 | 0.00 | 95 | 1008.4 |
| 20260509070642 | 12 | 191 | 1.6 | 4.8 | 0.00 | 0.00 | 0.00 | 95 | 1008.4 |
| 20260509070134 | 12 | 191 | 3.2 | 9.7 | 0.00 | 0.00 | 0.00 | 95 | 1008.3 |
| 20260509065648 | 12 | 191 | 3.2 | 9.7 | 0.00 | 0.00 | 0.00 | 95 | 1008.3 |
| 20260509065202 | 12 | 191 | 4.8 | 9.7 | 0.00 | 0.00 | 0.00 | 95 | 1008.5 |
| 20260509064636 | 12 | 190 | 1.6 | 12.9 | 0.00 | 0.00 | 0.00 | 95 | 1008.6 |
| 20260509064132 | 12 | 190 | 3.2 | 12.9 | 0.00 | 0.00 | 0.00 | 95 | 1008.8 |
| 20260509063649 | 12 | 189 | 6.4 | 11.3 | 0.00 | 0.00 | 0.00 | 95 | 1008.9 |
| 20260509063143 | 12 | 190 | 1.6 | 9.7 | 0.00 | 0.00 | 0.00 | 95 | 1008.9 |
| 20260509062637 | 12 | 190 | 1.6 | 9.7 | 0.00 | 0.00 | 0.00 | 95 | 1008.9 |
| 20260509062135 | 12 | 189 | 0.0 | 9.7 | 0.00 | 0.00 | 0.00 | 95 | 1008.8 |
| 20260509061648 | 12 | 189 | 3.2 | 9.7 | 0.00 | 0.00 | 0.00 | 95 | 1008.8 |
| 20260509061142 | 12 | 190 | 1.6 | 4.8 | 0.00 | 0.00 | 0.00 | 95 | 1008.8 |
| 20260509060659 | 12 | 190 | 1.6 | 9.7 | 0.00 | 0.00 | 0.00 | 95 | 1009.1 |
| 20260509060132 | 12 | 190 | 4.8 | 9.7 | 0.00 | 0.00 | 0.00 | 95 | 1009.2 |
| 20260509055646 | 12 | 189 | 1.6 | 11.3 | 0.00 | 0.00 | 0.00 | 95 | 1009.4 |
| 20260509055200 | 12 | 191 | 4.8 | 11.3 | 0.00 | 0.00 | 0.00 | 95 | 1009.7 |
| 20260509054637 | 12 | 191 | 1.6 | 9.7 | 0.00 | 0.00 | 0.00 | 95 | 1009.7 |
| 20260509054131 | 12 | 192 | 4.8 | 9.7 | 0.00 | 0.00 | 0.00 | 95 | 1009.7 |
| 20260509053627 | 12 | 192 | 4.8 | 9.7 | 0.00 | 0.00 | 0.00 | 95 | 1009.9 |
| 20260509053142 | 12 | 192 | 3.2 | 9.7 | 0.00 | 0.00 | 0.00 | 95 | 1009.9 |
| 20260509052638 | 12 | 192 | 3.2 | 11.3 | 0.00 | 0.00 | 0.00 | 95 | 1009.9 |
| 20260509052133 | 12 | 192 | 3.2 | 16.1 | 0.00 | 0.00 | 0.00 | 95 | 1009.9 |
| 20260509051628 | 12 | 192 | 4.8 | 9.7 | 0.00 | 0.00 | 0.00 | 95 | 1009.9 |
| 20260509051204 | 12 | 192 | 4.8 | 9.7 | 0.00 | 0.00 | 0.00 | 95 | 1009.8 |
| 20260509050638 | 12 | 192 | 3.2 | 6.4 | 0.00 | 0.00 | 0.00 | 94 | 1009.8 |
| 20260509050134 | 12 | 192 | 3.2 | 6.4 | 0.00 | 0.00 | 0.00 | 94 | 1009.8 |
| 20260509045630 | 12 | 192 | 3.2 | 6.4 | 0.00 | 0.00 | 0.00 | 94 | 1009.8 |
| 20260509045126 | 12 | 192 | 3.2 | 6.4 | 0.00 | 0.00 | 0.00 | 94 | 1009.8 |
| 20260509044642 | 12 | 192 | 4.8 | 6.4 | 0.00 | 0.00 | 0.00 | 94 | 1009.7 |
| 20260509044138 | 12 | 191 | 1.6 | 9.7 | 0.00 | 0.00 | 0.00 | 94 | 1009.7 |
| 20260509043634 | 12 | 191 | 3.2 | 9.7 | 0.00 | 0.00 | 0.00 | 94 | 1009.7 |
| 20260509043129 | 12 | 191 | 4.8 | 9.7 | 0.00 | 0.00 | 0.00 | 94 | 1009.7 |
| 20260509042626 | 12 | 192 | 3.2 | 11.3 | 0.00 | 0.00 | 0.00 | 94 | 1009.7 |
| 20260509042142 | 12 | 192 | 6.4 | 11.3 | 0.00 | 0.00 | 0.00 | 94 | 1009.5 |
| 20260509041637 | 12 | 193 | 6.4 | 11.3 | 0.00 | 0.00 | 0.00 | 94 | 1009.5 |
| 20260509041131 | 12 | 194 | 4.8 | 9.7 | 0.00 | 0.00 | 0.00 | 94 | 1009.9 |
| 20260509040648 | 12 | 194 | 1.6 | 4.8 | 0.00 | 0.00 | 0.00 | 94 | 1009.7 |
| 20260509040143 | 12 | 194 | 1.6 | 4.8 | 0.00 | 0.00 | 0.00 | 94 | 1009.7 |
| 20260509035629 | 12 | 194 | 0.0 | 1.6 | 0.00 | 0.00 | 0.00 | 94 | 1010.2 |
| 20260509035145 | 13 | 194 | 0.0 | 6.4 | 0.00 | 0.00 | 0.00 | 94 | 1010.1 |
| 20260509034641 | 13 | 194 | 1.6 | 4.8 | 0.00 | 0.00 | 0.00 | 94 | 1010.0 |
| 20260509034136 | 13 | 194 | 1.6 | 4.8 | 0.00 | 0.00 | 0.00 | 94 | 1010.0 |
| 20260509033631 | 13 | 194 | 1.6 | 12.9 | 0.00 | 0.00 | 0.00 | 94 | 1010.0 |
| 20260509033127 | 13 | 194 | 4.8 | 12.9 | 0.00 | 0.00 | 0.00 | 94 | 1009.9 |
| 20260509032639 | 13 | 192 | 4.8 | 11.3 | 0.00 | 0.00 | 0.00 | 94 | 1009.9 |
| 20260509032153 | 13 | 192 | 6.4 | 11.3 | 0.00 | 0.00 | 0.00 | 94 | 1009.8 |
| 20260509031629 | 13 | 189 | 4.8 | 11.3 | 0.00 | 0.00 | 0.00 | 94 | 1009.9 |
| 20260509031143 | 13 | 189 | 3.2 | 11.3 | 0.00 | 0.00 | 0.00 | 94 | 1009.8 |
| 20260509030639 | 13 | 189 | 4.8 | 12.9 | 0.00 | 0.00 | 0.00 | 93 | 1009.8 |
| 20260509030154 | 13 | 192 | 3.2 | 11.3 | 0.00 | 0.00 | 0.00 | 93 | 1009.9 |
| 20260509025628 | 13 | 191 | 4.8 | 9.7 | 0.00 | 0.00 | 0.00 | 93 | 1010.2 |
| 20260509025144 | 13 | 189 | 3.2 | 6.4 | 0.00 | 0.00 | 0.00 | 93 | 1010.2 |
| 20260509024636 | 13 | 189 | 3.2 | 6.4 | 0.00 | 0.00 | 0.00 | 93 | 1010.3 |
| 20260509024131 | 13 | 188 | 4.8 | 6.4 | 0.00 | 0.00 | 0.00 | 93 | 1010.1 |
| 20260509023626 | 13 | 188 | 1.6 | 3.2 | 0.00 | 0.00 | 0.00 | 93 | 1010.1 |
| 20260509023142 | 13 | 188 | 0.0 | 3.2 | 0.00 | 0.00 | 0.00 | 93 | 1010.2 |
| 20260509022639 | 13 | 188 | 0.0 | 4.8 | 0.00 | 0.00 | 0.00 | 93 | 1010.1 |
| 20260509022156 | 13 | 188 | 1.6 | 6.4 | 0.00 | 0.00 | 0.00 | 93 | 1010.4 |
| 20260509021630 | 13 | 188 | 1.6 | 6.4 | 0.00 | 0.00 | 0.00 | 93 | 1010.4 |
| 20260509021145 | 13 | 177 | 1.6 | 6.4 | 0.00 | 0.00 | 0.00 | 93 | 1010.5 |
| 20260509020641 | 13 | 176 | 1.6 | 6.4 | 0.00 | 0.00 | 0.00 | 93 | 1010.3 |
| 20260509020137 | 13 | 191 | 0.0 | 6.4 | 0.00 | 0.00 | 0.00 | 93 | 1010.3 |
| 20260509015632 | 13 | 191 | 1.6 | 6.4 | 0.00 | 0.00 | 0.00 | 93 | 1010.1 |
| 20260509015129 | 13 | 189 | 3.2 | 6.4 | 0.00 | 0.00 | 0.00 | 93 | 1010.1 |
| 20260509014705 | 13 | 189 | 1.6 | 4.8 | 0.00 | 0.00 | 0.00 | 93 | 1010.0 |
| 20260509014139 | 13 | 189 | 3.2 | 9.7 | 0.00 | 0.00 | 0.00 | 93 | 1010.1 |
| 20260509013635 | 13 | 189 | 3.2 | 6.4 | 0.00 | 0.00 | 0.00 | 92 | 1010.2 |
| 20260509013131 | 13 | 189 | 1.6 | 6.4 | 0.00 | 0.00 | 0.00 | 92 | 1010.3 |
| 20260509012628 | 13 | 189 | 3.2 | 6.4 | 0.00 | 0.00 | 0.00 | 92 | 1010.2 |
| 20260509012144 | 13 | 189 | 3.2 | 6.4 | 0.00 | 0.00 | 0.00 | 92 | 1010.1 |
| 20260509011641 | 13 | 188 | 3.2 | 11.3 | 0.00 | 0.00 | 0.00 | 92 | 1010.1 |
| 20260509011137 | 13 | 188 | 1.6 | 11.3 | 0.00 | 0.00 | 0.00 | 92 | 1010.1 |
| 20260509010632 | 13 | 217 | 3.2 | 6.4 | 0.00 | 0.00 | 0.00 | 92 | 1010.0 |
| 20260509010128 | 13 | 25 | 0.0 | 0.0 | 0.00 | 0.00 | 0.00 | 92 | 1009.9 |
| 20260509005644 | 13 | 25 | 0.0 | 0.0 | 0.00 | 0.00 | 0.00 | 92 | 1010.0 |
| 20260509005138 | 13 | 25 | 0.0 | 0.0 | 0.00 | 0.00 | 0.00 | 92 | 1009.8 |
| 20260509004634 | 13 | 25 | 0.0 | 0.0 | 0.00 | 0.00 | 0.00 | 92 | 1009.8 |
| 20260509004129 | 13 | 25 | 0.0 | 0.0 | 0.00 | 0.00 | 0.00 | 91 | 1009.7 |
| 20260509003643 | 13 | 25 | 0.0 | 0.0 | 0.00 | 0.00 | 0.00 | 91 | 1009.6 |
| 20260509003137 | 13 | 25 | 0.0 | 0.0 | 0.00 | 0.00 | 0.00 | 91 | 1009.7 |
| 20260509002630 | 13 | 25 | 0.0 | 0.0 | 0.00 | 0.00 | 0.00 | 91 | 1009.6 |
| 20260509002141 | 13 | 25 | 0.0 | 0.0 | 0.00 | 0.00 | 0.00 | 91 | 1009.7 |
| 20260509001636 | 13 | 25 | 0.0 | 1.6 | 0.00 | 0.00 | 0.00 | 91 | 1009.8 |
| 20260509001133 | 13 | 25 | 0.0 | 3.2 | 0.00 | 0.00 | 0.00 | 91 | 1010.0 |
| 20260509000629 | 13 | 25 | 0.0 | 3.2 | 0.00 | 0.00 | 0.00 | 91 | 1009.9 |
| 20260509000145 | 13 | 25 | 0.0 | 4.8 | 0.00 | 0.00 | 0.00 | 91 | 1009.8 |
| 20260508235640 | 13 | 25 | 1.6 | 4.8 | 0.00 | 0.00 | 0.00 | 90 | 1009.9 |
| 20260508235155 | 13 | 26 | 0.0 | 4.8 | 0.00 | 0.00 | 0.00 | 90 | 1009.8 |
| 20260508234628 | 13 | 26 | 1.6 | 4.8 | 0.00 | 0.00 | 0.00 | 90 | 1009.5 |
| 20260508234145 | 13 | 27 | 1.6 | 6.4 | 0.00 | 0.00 | 0.00 | 90 | 1009.7 |
| 20260508233700 | 13 | 25 | 3.2 | 6.4 | 0.00 | 0.00 | 0.00 | 90 | 1009.8 |
| 20260508233134 | 13 | 22 | 0.0 | 0.0 | 0.00 | 0.00 | 0.00 | 89 | 1009.9 |
| 20260508232628 | 13 | 21 | 0.0 | 0.0 | 0.00 | 0.00 | 0.00 | 89 | 1009.9 |
| 20260508232143 | 13 | 21 | 0.0 | 3.2 | 0.00 | 0.00 | 0.00 | 88 | 1010.0 |
| 20260508231700 | 13 | 21 | 0.0 | 6.4 | 0.00 | 0.00 | 0.00 | 88 | 1010.0 |
| 20260508231135 | 14 | 21 | 1.6 | 6.4 | 0.00 | 0.00 | 0.00 | 87 | 1009.9 |
| 20260508230629 | 14 | 18 | 0.0 | 1.6 | 0.00 | 0.00 | 0.00 | 87 | 1009.9 |
| 20260508230135 | 14 | 18 | 0.0 | 1.6 | 0.00 | 0.00 | 0.00 | 86 | 1010.0 |
| 20260508225627 | 14 | 18 | 0.0 | 6.4 | 0.00 | 0.00 | 0.00 | 86 | 1010.0 |
| 20260508225144 | 14 | 18 | 1.6 | 6.4 | 0.00 | 0.00 | 0.00 | 85 | 1010.0 |
| 20260508224658 | 14 | 10 | 1.6 | 8.0 | 0.00 | 0.00 | 0.00 | 84 | 1009.9 |
| 20260508224136 | 15 | 19 | 1.6 | 4.8 | 0.00 | 0.00 | 0.00 | 83 | 1009.8 |
| 20260508222631 | 15 | 343 | 1.6 | 4.8 | 0.00 | 0.00 | 0.00 | 79 | 1009.9 |
| 20260508222126 | 15 | 48 | 1.6 | 6.4 | 0.00 | 0.00 | 0.00 | 77 | 1009.9 |
| 20260508221643 | 16 | 35 | 0.0 | 6.4 | 0.00 | 0.00 | 0.00 | 76 | 1009.9 |
| 20260508221138 | 16 | 4 | 1.6 | 11.3 | 0.00 | 0.00 | 0.00 | 74 | 1010.0 |
| 20260508220636 | 16 | 22 | 3.2 | 11.3 | 0.00 | 0.00 | 0.00 | 73 | 1010.0 |
| 20260508220133 | 16 | 193 | 0.0 | 3.2 | 0.00 | 0.00 | 0.00 | 72 | 1009.7 |
| 20260508215706 | 16 | 193 | 0.0 | 1.6 | 0.00 | 0.00 | 0.00 | 70 | 1009.5 |
| 20260508215139 | 17 | 192 | 0.0 | 1.6 | 0.00 | 0.00 | 0.00 | 69 | 1009.5 |
| 20260508214635 | 17 | 192 | 0.0 | 1.6 | 0.00 | 0.00 | 0.00 | 68 | 1009.5 |
| 20260508214131 | 17 | 192 | 0.0 | 1.6 | 0.00 | 0.00 | 0.00 | 67 | 1009.3 |
| 20260508213627 | 17 | 192 | 0.0 | 1.6 | 0.00 | 0.00 | 0.00 | 66 | 1009.2 |
| 20260508213143 | 17 | 192 | 0.0 | 4.8 | 0.00 | 0.00 | 0.00 | 65 | 1009.2 |
| 20260508212637 | 17 | 198 | 1.6 | 9.7 | 0.00 | 0.00 | 0.00 | 64 | 1009.3 |
| 20260508212131 | 17 | 201 | 3.2 | 14.5 | 0.00 | 0.00 | 0.00 | 63 | 1009.4 |
| 20260508211628 | 17 | 202 | 3.2 | 14.5 | 0.00 | 0.00 | 0.00 | 62 | 1009.4 |
| 20260508211144 | 18 | 175 | 1.6 | 6.4 | 0.00 | 0.00 | 0.00 | 62 | 1009.6 |
| 20260508210641 | 18 | 162 | 0.0 | 6.4 | 0.00 | 0.00 | 0.00 | 62 | 1009.5 |
| 20260508210159 | 18 | 160 | 1.6 | 11.3 | 0.00 | 0.00 | 0.00 | 60 | 1009.4 |
| 20260508205631 | 18 | 160 | 3.2 | 12.9 | 0.00 | 0.00 | 0.00 | 58 | 1009.3 |
| 20260508205126 | 18 | 196 | 4.8 | 12.9 | 0.00 | 0.00 | 0.00 | 57 | 1009.4 |
| 20260508204639 | 18 | 195 | 4.8 | 14.5 | 0.00 | 0.00 | 0.00 | 56 | 1009.3 |
| 20260508204135 | 18 | 192 | 6.4 | 14.5 | 0.00 | 0.00 | 0.00 | 56 | 1009.3 |
| 20260508203632 | 18 | 192 | 4.8 | 12.9 | 0.00 | 0.00 | 0.00 | 56 | 1009.3 |
| 20260508203129 | 18 | 196 | 4.8 | 24.1 | 0.00 | 0.00 | 0.00 | 56 | 1009.3 |
| 20260508202645 | 18 | 198 | 6.4 | 24.1 | 0.00 | 0.00 | 0.00 | 55 | 1009.4 |
| 20260508202201 | 18 | 194 | 9.7 | 19.3 | 0.00 | 0.00 | 0.00 | 55 | 1009.5 |
| 20260508201634 | 18 | 192 | 4.8 | 17.7 | 0.00 | 0.00 | 0.00 | 55 | 1009.6 |
| 20260508201130 | 18 | 184 | 6.4 | 17.7 | 0.00 | 0.00 | 0.00 | 54 | 1009.6 |
| 20260508200626 | 18 | 192 | 8.0 | 17.7 | 0.00 | 0.00 | 0.00 | 54 | 1009.6 |
| 20260508200141 | 18 | 194 | 8.0 | 17.7 | 0.00 | 0.00 | 0.00 | 55 | 1009.8 |
| 20260508195653 | 18 | 198 | 4.8 | 17.7 | 0.00 | 0.00 | 0.00 | 55 | 1009.8 |
| 20260508195125 | 18 | 200 | 4.8 | 19.3 | 0.00 | 0.00 | 0.00 | 56 | 1009.9 |
| 20260508194640 | 18 | 199 | 6.4 | 19.3 | 0.00 | 0.00 | 0.00 | 56 | 1010.0 |
| 20260508194134 | 18 | 185 | 8.0 | 16.1 | 0.00 | 0.00 | 0.00 | 56 | 1010.1 |
| 20260508193652 | 18 | 186 | 6.4 | 20.9 | 0.00 | 0.00 | 0.00 | 55 | 1010.1 |
| 20260508193126 | 18 | 196 | 8.0 | 20.9 | 0.00 | 0.00 | 0.00 | 55 | 1010.0 |
| 20260508192642 | 18 | 191 | 8.0 | 17.7 | 0.00 | 0.00 | 0.00 | 55 | 1010.0 |
| 20260508192138 | 18 | 200 | 11.3 | 20.9 | 0.00 | 0.00 | 0.00 | 55 | 1010.2 |
| 20260508191633 | 18 | 198 | 8.0 | 19.3 | 0.00 | 0.00 | 0.00 | 57 | 1010.4 |
| 20260508191127 | 18 | 185 | 6.4 | 14.5 | 0.00 | 0.00 | 0.00 | 57 | 1010.5 |
| 20260508190641 | 18 | 198 | 8.0 | 14.5 | 0.00 | 0.00 | 0.00 | 57 | 1010.6 |
| 20260508190135 | 18 | 198 | 9.7 | 14.5 | 0.00 | 0.00 | 0.00 | 56 | 1010.7 |
| 20260508185630 | 18 | 196 | 4.8 | 19.3 | 0.00 | 0.00 | 0.00 | 56 | 1010.8 |
| 20260508185126 | 18 | 196 | 8.0 | 19.3 | 0.00 | 0.00 | 0.00 | 56 | 1010.8 |
| 20260508184642 | 18 | 196 | 6.4 | 12.9 | 0.00 | 0.00 | 0.00 | 56 | 1010.9 |
| 20260508184139 | 18 | 200 | 4.8 | 14.5 | 0.00 | 0.00 | 0.00 | 56 | 1010.9 |
| 20260508183633 | 18 | 196 | 4.8 | 16.1 | 0.00 | 0.00 | 0.00 | 56 | 1011.0 |
| 20260508183127 | 18 | 202 | 8.0 | 16.1 | 0.00 | 0.00 | 0.00 | 55 | 1010.9 |
| 20260508182640 | 18 | 201 | 3.2 | 22.5 | 0.00 | 0.00 | 0.00 | 55 | 1011.0 |
| 20260508182136 | 18 | 197 | 3.2 | 16.1 | 0.00 | 0.00 | 0.00 | 56 | 1011.0 |
| 20260508181633 | 18 | 190 | 6.4 | 19.3 | 0.00 | 0.00 | 0.00 | 55 | 1011.2 |
| 20260508181129 | 18 | 185 | 8.0 | 17.7 | 0.00 | 0.00 | 0.00 | 55 | 1011.2 |
| 20260508180625 | 18 | 196 | 4.8 | 19.3 | 0.00 | 0.00 | 0.00 | 55 | 1011.3 |
| 20260508180136 | 18 | 198 | 8.0 | 19.3 | 0.00 | 0.00 | 0.00 | 55 | 1011.3 |
| 20260508175632 | 18 | 189 | 4.8 | 20.9 | 0.00 | 0.00 | 0.00 | 55 | 1011.4 |
| 20260508175205 | 18 | 161 | 9.7 | 20.9 | 0.00 | 0.00 | 0.00 | 53 | 1011.4 |
| 20260508174640 | 18 | 184 | 11.3 | 24.1 | 0.00 | 0.00 | 0.00 | 54 | 1011.5 |
| 20260508174137 | 18 | 213 | 11.3 | 24.1 | 0.00 | 0.00 | 0.00 | 52 | 1011.5 |
| 20260508173634 | 18 | 185 | 12.9 | 25.7 | 0.00 | 0.00 | 0.00 | 53 | 1011.6 |
| 20260508173129 | 18 | 210 | 6.4 | 25.7 | 0.00 | 0.00 | 0.00 | 52 | 1011.6 |
| 20260508172644 | 18 | 216 | 12.9 | 24.1 | 0.00 | 0.00 | 0.00 | 53 | 1011.6 |
| 20260508172159 | 18 | 202 | 11.3 | 22.5 | 0.00 | 0.00 | 0.00 | 52 | 1011.6 |
| 20260508171653 | 18 | 193 | 8.0 | 19.3 | 0.00 | 0.00 | 0.00 | 56 | 1011.7 |
| 20260508171128 | 18 | 190 | 6.4 | 19.3 | 0.00 | 0.00 | 0.00 | 56 | 1011.8 |
| 20260508170639 | 18 | 197 | 12.9 | 22.5 | 0.00 | 0.00 | 0.00 | 55 | 1012.0 |
| 20260508170155 | 18 | 196 | 8.0 | 22.5 | 0.00 | 0.00 | 0.00 | 58 | 1012.0 |
| 20260508165626 | 18 | 231 | 16.1 | 22.5 | 0.00 | 0.00 | 0.00 | 56 | 1012.0 |
| 20260508165200 | 17 | 202 | 14.5 | 22.5 | 0.00 | 0.00 | 0.00 | 57 | 1012.3 |
| 20260508164634 | 17 | 189 | 14.5 | 22.5 | 0.00 | 0.00 | 0.00 | 57 | 1012.4 |
| 20260508164129 | 17 | 197 | 9.7 | 24.1 | 0.00 | 0.00 | 0.00 | 57 | 1012.5 |
| 20260508163644 | 17 | 200 | 12.9 | 24.1 | 0.00 | 0.00 | 0.00 | 57 | 1012.7 |
| 20260508163140 | 17 | 188 | 14.5 | 24.1 | 0.00 | 0.00 | 0.00 | 57 | 1012.7 |
| 20260508162643 | 17 | 187 | 9.7 | 27.4 | 0.00 | 0.00 | 0.00 | 57 | 1012.8 |
| 20260508162138 | 17 | 198 | 11.3 | 27.4 | 0.56 | 0.56 | 0.56 | 56 | 1012.8 |
| 20260508161634 | 17 | 196 | 11.3 | 19.3 | 11.86 | 15.70 | 15.70 | 58 | 1012.8 |
| 20260508161127 | 17 | 200 | 6.4 | 16.1 | 13.72 | 15.39 | 15.39 | 58 | 1012.8 |
| 20260508160702 | 17 | 196 | 3.2 | 17.7 | 12.98 | 14.12 | 14.12 | 59 | 1013.0 |
| 20260508160137 | 17 | 199 | 11.3 | 17.7 | 12.12 | 12.78 | 12.78 | 58 | 1012.9 |
| 20260508155631 | 17 | 193 | 3.2 | 22.5 | 11.33 | 11.99 | 11.99 | 59 | 1013.0 |
| 20260508155148 | 17 | 187 | 12.9 | 20.9 | 8.81 | 9.47 | 9.47 | 58 | 1013.0 |
| 20260508154645 | 17 | 179 | 6.4 | 19.3 | 8.28 | 8.94 | 8.94 | 58 | 1013.1 |
| 20260508154139 | 17 | 183 | 8.0 | 19.3 | 7.75 | 8.41 | 8.41 | 59 | 1013.2 |
| 20260508153632 | 17 | 196 | 6.4 | 19.3 | 6.22 | 6.88 | 6.88 | 58 | 1013.1 |
| 20260508153128 | 17 | 198 | 4.8 | 25.7 | 3.23 | 3.89 | 3.89 | 58 | 1013.1 |
| 20260508152642 | 17 | 210 | 11.3 | 25.7 | 3.17 | 3.84 | 3.84 | 57 | 1013.1 |
| 20260508152137 | 17 | 199 | 9.7 | 20.9 | 3.17 | 3.84 | 3.84 | 58 | 1013.1 |
| 20260508151632 | 17 | 196 | 6.4 | 20.9 | 2.72 | 3.38 | 3.38 | 58 | 1013.1 |
| 20260508151129 | 16 | 202 | 9.7 | 17.7 | 0.91 | 1.57 | 1.57 | 57 | 1013.1 |
| 20260508150703 | 16 | 196 | 6.4 | 19.3 | 0.48 | 1.14 | 1.14 | 58 | 1013.1 |
| 20260508150135 | 16 | 202 | 9.7 | 20.9 | 0.00 | 0.66 | 0.66 | 58 | 1013.2 |
| 20260508145627 | 16 | 191 | 9.7 | 17.7 | 0.00 | 0.66 | 0.66 | 60 | 1013.3 |
| 20260508145137 | 16 | 200 | 8.0 | 19.3 | 0.00 | 0.66 | 0.66 | 60 | 1013.3 |
| 20260508144631 | 16 | 198 | 8.0 | 25.7 | 0.00 | 0.66 | 0.66 | 61 | 1013.4 |
| 20260508144127 | 16 | 199 | 4.8 | 25.7 | 0.00 | 0.66 | 0.66 | 59 | 1013.5 |
| 20260508143704 | 16 | 199 | 9.7 | 20.9 | 0.00 | 0.66 | 0.66 | 59 | 1013.4 |
| 20260508143137 | 16 | 204 | 6.4 | 20.9 | 0.00 | 0.66 | 0.66 | 60 | 1013.5 |
| 20260508142630 | 16 | 185 | 6.4 | 24.1 | 0.00 | 0.66 | 0.66 | 60 | 1013.5 |
| 20260508142144 | 15 | 191 | 9.7 | 24.1 | 0.00 | 0.66 | 0.66 | 60 | 1013.4 |
| 20260508141639 | 15 | 203 | 9.7 | 19.3 | 0.00 | 0.66 | 0.66 | 61 | 1013.5 |
| 20260508141135 | 15 | 190 | 4.8 | 24.1 | 0.00 | 0.66 | 0.66 | 60 | 1013.5 |
| 20260508140630 | 15 | 194 | 9.7 | 24.1 | 0.00 | 0.66 | 0.66 | 61 | 1013.6 |
| 20260508140145 | 15 | 191 | 8.0 | 20.9 | 0.00 | 0.66 | 0.66 | 61 | 1013.7 |
| 20260508135659 | 15 | 200 | 6.4 | 22.5 | 0.00 | 0.66 | 0.66 | 61 | 1013.7 |
| 20260508135133 | 14 | 198 | 8.0 | 22.5 | 0.00 | 0.66 | 0.66 | 62 | 1013.7 |
| 20260508134648 | 14 | 188 | 6.4 | 16.1 | 0.00 | 0.66 | 0.66 | 62 | 1013.7 |
| 20260508134142 | 14 | 189 | 6.4 | 16.1 | 0.18 | 0.66 | 0.66 | 62 | 1013.8 |
| 20260508133657 | 13 | 191 | 6.4 | 19.3 | 0.66 | 0.66 | 0.66 | 61 | 1013.8 |
| 20260508133130 | 13 | 208 | 8.0 | 17.7 | 0.66 | 0.66 | 0.66 | 62 | 1013.9 |
| 20260508132643 | 13 | 202 | 9.7 | 19.3 | 0.66 | 0.66 | 0.66 | 63 | 1013.9 |
| 20260508132138 | 13 | 200 | 9.7 | 19.3 | 0.66 | 0.66 | 0.66 | 64 | 1013.9 |
| 20260508131632 | 12 | 194 | 4.8 | 22.5 | 0.66 | 0.66 | 0.66 | 65 | 1013.9 |
| 20260508131127 | 12 | 187 | 8.0 | 17.7 | 0.66 | 0.66 | 0.66 | 65 | 1013.9 |
| 20260508130641 | 12 | 198 | 6.4 | 19.3 | 0.66 | 0.66 | 0.66 | 66 | 1013.9 |
| 20260508130136 | 12 | 201 | 6.4 | 19.3 | 0.66 | 0.66 | 0.66 | 66 | 1013.9 |
| 20260508125629 | 12 | 191 | 6.4 | 19.3 | 0.66 | 0.66 | 0.66 | 66 | 1013.9 |
| 20260508125143 | 11 | 189 | 8.0 | 19.3 | 0.66 | 0.66 | 0.66 | 67 | 1013.9 |
| 20260508124700 | 11 | 186 | 8.0 | 20.9 | 0.66 | 0.66 | 0.66 | 67 | 1013.9 |
| 20260508124135 | 11 | 206 | 9.7 | 20.9 | 0.48 | 0.48 | 0.48 | 68 | 1014.0 |
| 20260508123705 | 11 | 196 | 4.8 | 17.7 | 0.00 | 0.00 | 0.00 | 68 | 1013.9 |
| 20260508123139 | 11 | 187 | 9.7 | 16.1 | 0.00 | 0.00 | 0.00 | 68 | 1013.9 |
| 20260508122636 | 11 | 189 | 6.4 | 14.5 | 0.00 | 0.00 | 0.00 | 69 | 1014.0 |
| 20260508122131 | 10 | 189 | 6.4 | 11.3 | 0.00 | 0.00 | 0.00 | 69 | 1013.9 |
| 20260508121645 | 10 | 194 | 3.2 | 12.9 | 0.00 | 0.00 | 0.00 | 69 | 1013.9 |
| 20260508121138 | 10 | 182 | 3.2 | 12.9 | 0.00 | 0.00 | 0.00 | 70 | 1013.9 |
| 20260508120653 | 10 | 195 | 3.2 | 11.3 | 0.00 | 0.00 | 0.00 | 70 | 1013.9 |
| 20260508120128 | 10 | 189 | 3.2 | 14.5 | 0.00 | 0.00 | 0.00 | 70 | 1013.9 |
| 20260508115644 | 10 | 189 | 3.2 | 14.5 | 0.00 | 0.00 | 0.00 | 70 | 1013.8 |
| 20260508115141 | 10 | 195 | 3.2 | 9.7 | 0.00 | 0.00 | 0.00 | 70 | 1013.7 |
| 20260508114634 | 9 | 193 | 3.2 | 9.7 | 0.00 | 0.00 | 0.00 | 70 | 1013.7 |
| 20260508114149 | 9 | 192 | 3.2 | 6.4 | 0.00 | 0.00 | 0.00 | 70 | 1013.6 |
| 20260508113644 | 9 | 193 | 3.2 | 6.4 | 0.00 | 0.00 | 0.00 | 70 | 1013.6 |
| 20260508113139 | 9 | 188 | 3.2 | 6.4 | 0.00 | 0.00 | 0.00 | 70 | 1013.6 |
| 20260508112655 | 9 | 188 | 3.2 | 6.4 | 0.00 | 0.00 | 0.00 | 70 | 1013.6 |
| 20260508112130 | 9 | 188 | 3.2 | 6.4 | 0.00 | 0.00 | 0.00 | 70 | 1013.7 |
| 20260508111625 | 9 | 187 | 1.6 | 4.8 | 0.00 | 0.00 | 0.00 | 70 | 1013.6 |
| 20260508111140 | 9 | 187 | 1.6 | 4.8 | 0.00 | 0.00 | 0.00 | 70 | 1013.5 |
| 20260508110635 | 9 | 187 | 1.6 | 4.8 | 0.00 | 0.00 | 0.00 | 69 | 1013.4 |
| 20260508110132 | 9 | 187 | 1.6 | 6.4 | 0.00 | 0.00 | 0.00 | 69 | 1013.4 |
| 20260508105626 | 9 | 187 | 3.2 | 6.4 | 0.00 | 0.00 | 0.00 | 69 | 1013.5 |
| 20260508105140 | 9 | 189 | 1.6 | 4.8 | 0.00 | 0.00 | 0.00 | 68 | 1013.5 |
| 20260508104636 | 9 | 189 | 1.6 | 4.8 | 0.00 | 0.00 | 0.00 | 68 | 1013.5 |
| 20260508104133 | 9 | 189 | 1.6 | 4.8 | 0.00 | 0.00 | 0.00 | 67 | 1013.5 |
| 20260508103626 | 10 | 188 | 1.6 | 4.8 | 0.00 | 0.00 | 0.00 | 67 | 1013.4 |
| 20260508103141 | 10 | 188 | 0.0 | 6.4 | 0.00 | 0.00 | 0.00 | 66 | 1013.4 |
| 20260508102657 | 10 | 188 | 3.2 | 6.4 | 0.00 | 0.00 | 0.00 | 66 | 1013.4 |
| 20260508102130 | 10 | 187 | 1.6 | 6.4 | 0.00 | 0.00 | 0.00 | 66 | 1013.3 |
| 20260508101627 | 10 | 187 | 3.2 | 9.7 | 0.00 | 0.00 | 0.00 | 66 | 1013.4 |
| 20260508101141 | 10 | 187 | 4.8 | 9.7 | 0.00 | 0.00 | 0.00 | 66 | 1013.3 |
| 20260508100634 | 10 | 189 | 1.6 | 6.4 | 0.00 | 0.00 | 0.00 | 66 | 1013.3 |
| 20260508100126 | 10 | 189 | 3.2 | 6.4 | 0.00 | 0.00 | 0.00 | 65 | 1013.3 |
| 20260508095656 | 10 | 189 | 1.6 | 6.4 | 0.00 | 0.00 | 0.00 | 65 | 1013.4 |
| 20260508095130 | 10 | 189 | 3.2 | 11.3 | 0.00 | 0.00 | 0.00 | 65 | 1013.4 |
| 20260508094628 | 10 | 194 | 1.6 | 6.4 | 0.00 | 0.00 | 0.00 | 64 | 1013.4 |
| 20260508094143 | 10 | 192 | 0.0 | 0.0 | 0.00 | 0.00 | 0.00 | 64 | 1013.4 |
| 20260508093640 | 10 | 192 | 0.0 | 0.0 | 0.00 | 0.00 | 0.00 | 64 | 1013.4 |
| 20260508093136 | 11 | 192 | 0.0 | 0.0 | 0.00 | 0.00 | 0.00 | 64 | 1013.4 |
| 20260508092630 | 11 | 192 | 0.0 | 0.0 | 0.00 | 0.00 | 0.00 | 64 | 1013.4 |
| 20260508092145 | 11 | 192 | 0.0 | 0.0 | 0.00 | 0.00 | 0.00 | 64 | 1013.5 |
| 20260508091703 | 11 | 192 | 0.0 | 0.0 | 0.00 | 0.00 | 0.00 | 64 | 1013.5 |
| 20260508091137 | 11 | 192 | 0.0 | 0.0 | 0.00 | 0.00 | 0.00 | 63 | 1013.4 |
| 20260508090633 | 11 | 192 | 0.0 | 0.0 | 0.00 | 0.00 | 0.00 | 63 | 1013.5 |